• In Deutschland
  • Länderverzeichnis
  • Für 7 Tage
  • Wassertemperatur
  • Satellitenkarten
  • Wetterkarte
  • Widgets
  • user-avatar
    Anmelden

    Stündliche Wetter Schumen

    Heute, 16 Januar, Dienstag

    Zeit Temperatur Niederschläge Wind Luftdruck Luftfeuchtigkeit
    00:00 -4°C° 0,6 mm 2 m/S 735 mmHg 92%
    01:00 -2°C° 0,6 mm 1 m/S 735 mmHg 94%
    02:00 -2°C° 0 mm 1 m/S 734 mmHg 96%
    03:00 -2°C° 0,3 mm 1 m/S 734 mmHg 97%
    04:00 -2°C° 0,3 mm 1 m/S 733 mmHg 97%
    05:00 -1°C° 0,3 mm 1 m/S 733 mmHg 97%
    06:00 -2°C° 0,2 mm 1 m/S 732 mmHg 97%
    07:00 -2°C° 0,2 mm 1 m/S 732 mmHg 97%
    08:00 -2°C° 0,2 mm 1 m/S 731 mmHg 96%
    09:00 -4°C° 0 mm 2 m/S 731 mmHg 94%
    10:00 -3°C° 0 mm 2 m/S 731 mmHg 91%
    11:00 -3°C° 0 mm 2 m/S 731 mmHg 89%
    12:00 -2°C° 0 mm 2 m/S 730 mmHg 88%
    13:00 0°C° 0 mm 1 m/S 730 mmHg 87%
    14:00 +1°C° 0 mm 1 m/S 729 mmHg 86%
    15:00 +1°C° 0 mm 1 m/S 729 mmHg 88%
    16:00 0°C° 0 mm 1 m/S 728 mmHg 90%
    17:00 0°C° 0 mm 1 m/S 728 mmHg 93%
    18:00 0°C° 0 mm 1 m/S 727 mmHg 93%
    19:00 -2°C° 0 mm 2 m/S 727 mmHg 93%
    20:00 -2°C° 0 mm 2 m/S 726 mmHg 93%
    21:00 -1°C° 0 mm 2 m/S 726 mmHg 93%
    22:00 -1°C° 0 mm 2 m/S 726 mmHg 92%
    23:00 -1°C° 0 mm 2 m/S 725 mmHg 91%

    Morgen, 17 Januar, Mittwoch

    Zeit Temperatur Niederschläge Wind Luftdruck Luftfeuchtigkeit
    00:00 -1°C° 0 mm 2 m/S 725 mmHg 91%
    01:00 -1°C° 0 mm 2 m/S 725 mmHg 90%
    02:00 -1°C° 0 mm 2 m/S 724 mmHg 90%
    03:00 -1°C° 0 mm 2 m/S 724 mmHg 89%
    04:00 -1°C° 0 mm 2 m/S 723 mmHg 88%
    05:00 -1°C° 0 mm 2 m/S 723 mmHg 87%
    06:00 -1°C° 0 mm 2 m/S 722 mmHg 86%
    07:00 +1°C° 0 mm 2 m/S 722 mmHg 86%
    08:00 +1°C° 0 mm 2 m/S 722 mmHg 85%
    09:00 +1°C° 0 mm 3 m/S 721 mmHg 84%
    10:00 +2°C° 0 mm 3 m/S 721 mmHg 83%
    11:00 +4°C° 0 mm 3 m/S 720 mmHg 83%
    12:00 +4°C° 0 mm 4 m/S 719 mmHg 81%
    13:00 +5°C° 0 mm 5 m/S 718 mmHg 79%
    14:00 +6°C° 0 mm 5 m/S 717 mmHg 77%
    15:00 +5°C° 0,1 mm 6 m/S 716 mmHg 78%
    16:00 +5°C° 0,1 mm 6 m/S 715 mmHg 78%
    17:00 +4°C° 0,1 mm 6 m/S 714 mmHg 79%
    18:00 +5°C° 0,3 mm 7 m/S 713 mmHg 80%
    19:00 +5°C° 0,3 mm 7 m/S 713 mmHg 81%
    20:00 +5°C° 0,3 mm 8 m/S 712 mmHg 81%
    21:00 +4°C° 0,7 mm 8 m/S 712 mmHg 83%
    22:00 +2°C° 0,7 mm 8 m/S 712 mmHg 85%
    23:00 +1°C° 0,7 mm 8 m/S 712 mmHg 87%

    übermorgen, 18 Januar, Donnerstag

    Zeit Temperatur Niederschläge Wind Luftdruck Luftfeuchtigkeit
    00:00 0°C° 0,1 mm 9 m/S 712 mmHg 84%
    01:00 -2°C° 0,1 mm 10 m/S 713 mmHg 82%
    02:00 -2°C° 0,1 mm 11 m/S 714 mmHg 79%
    03:00 -3°C° 0,6 mm 11 m/S 714 mmHg 79%
    04:00 -3°C° 0,6 mm 11 m/S 715 mmHg 78%
    05:00 -4°C° 0,6 mm 11 m/S 716 mmHg 77%
    06:00 -4°C° 0,2 mm 11 m/S 717 mmHg 74%
    07:00 -4°C° 0,2 mm 11 m/S 718 mmHg 72%
    08:00 -6°C° 0,2 mm 11 m/S 719 mmHg 69%
    09:00 -4°C° 0 mm 10 m/S 720 mmHg 67%
    10:00 -4°C° 0 mm 10 m/S 722 mmHg 64%
    11:00 -4°C° 0 mm 10 m/S 723 mmHg 62%
    12:00 -3°C° 0 mm 10 m/S 723 mmHg 62%
    13:00 -2°C° 0 mm 10 m/S 724 mmHg 61%
    14:00 -1°C° 0 mm 9 m/S 724 mmHg 61%
    15:00 -1°C° 0 mm 8 m/S 725 mmHg 63%
    16:00 -2°C° 0 mm 7 m/S 726 mmHg 66%
    17:00 -2°C° 0 mm 7 m/S 726 mmHg 68%
    18:00 -3°C° 0 mm 6 m/S 727 mmHg 70%
    19:00 -3°C° 0 mm 6 m/S 727 mmHg 72%
    20:00 -2°C° 0 mm 5 m/S 728 mmHg 73%
    21:00 -3°C° 0 mm 4 m/S 728 mmHg 73%
    22:00 -3°C° 0 mm 4 m/S 728 mmHg 72%
    23:00 -2°C° 0 mm 3 m/S 728 mmHg 72%

    19 Januar, Freitag

    Zeit Temperatur Niederschläge Wind Luftdruck Luftfeuchtigkeit
    00:00 -2°C° 0 mm 3 m/S 727 mmHg 71%
    01:00 -2°C° 0 mm 3 m/S 727 mmHg 69%
    02:00 -2°C° 0 mm 3 m/S 727 mmHg 68%
    03:00 -1°C° 0 mm 3 m/S 726 mmHg 66%
    04:00 -1°C° 0 mm 3 m/S 726 mmHg 64%
    05:00 -2°C° 0 mm 4 m/S 726 mmHg 62%
    06:00 -1°C° 0 mm 3 m/S 726 mmHg 61%
    07:00 -1°C° 0 mm 3 m/S 726 mmHg 61%
    08:00 -1°C° 0 mm 3 m/S 726 mmHg 60%
    09:00 +1°C° 0 mm 3 m/S 726 mmHg 58%
    10:00 +3°C° 0 mm 3 m/S 726 mmHg 55%
    11:00 +5°C° 0 mm 3 m/S 726 mmHg 52%
    12:00 +5°C° 0 mm 3 m/S 726 mmHg 52%
    13:00 +7°C° 0 mm 3 m/S 726 mmHg 52%
    14:00 +8°C° 0 mm 3 m/S 726 mmHg 52%
    15:00 +7°C° 0 mm 3 m/S 726 mmHg 55%
    16:00 +4°C° 0 mm 3 m/S 726 mmHg 59%
    17:00 +4°C° 0 mm 2 m/S 726 mmHg 62%
    18:00 +4°C° 0 mm 2 m/S 726 mmHg 61%
    19:00 +3°C° 0 mm 2 m/S 726 mmHg 60%
    20:00 +3°C° 0 mm 2 m/S 726 mmHg 58%
    21:00 +3°C° 0 mm 2 m/S 726 mmHg 58%
    22:00 +3°C° 0 mm 2 m/S 726 mmHg 58%
    23:00 +3°C° 0 mm 2 m/S 726 mmHg 58%

    20 Januar, Samstag

    Zeit Temperatur Niederschläge Wind Luftdruck Luftfeuchtigkeit
    00:00 +2°C° 0 mm 2 m/S 726 mmHg 60%
    01:00 +2°C° 0 mm 2 m/S 726 mmHg 61%
    02:00 +2°C° 0 mm 2 m/S 726 mmHg 63%
    03:00 +2°C° 0 mm 2 m/S 726 mmHg 65%
    04:00 +2°C° 0 mm 2 m/S 726 mmHg 67%
    05:00 +2°C° 0 mm 2 m/S 725 mmHg 69%
    06:00 +2°C° 0 mm 2 m/S 725 mmHg 71%
    07:00 +1°C° 0 mm 3 m/S 725 mmHg 73%
    08:00 +1°C° 0 mm 3 m/S 725 mmHg 75%
    09:00 +3°C° 0 mm 4 m/S 725 mmHg 75%
    10:00 +5°C° 0 mm 5 m/S 725 mmHg 76%
    11:00 +7°C° 0 mm 6 m/S 725 mmHg 76%
    12:00 +8°C° 0 mm 6 m/S 725 mmHg 74%
    13:00 +9°C° 0 mm 7 m/S 725 mmHg 73%
    14:00 +10°C° 0 mm 7 m/S 724 mmHg 72%
    15:00 +9°C° 0 mm 6 m/S 724 mmHg 75%
    16:00 +9°C° 0 mm 6 m/S 724 mmHg 78%
    17:00 +8°C° 0 mm 6 m/S 723 mmHg 81%
    18:00 +8°C° 0 mm 6 m/S 723 mmHg 81%
    19:00 +8°C° 0 mm 7 m/S 723 mmHg 81%
    20:00 +7°C° 0 mm 8 m/S 723 mmHg 82%
    21:00 +7°C° 0 mm 8 m/S 723 mmHg 81%
    22:00 +7°C° 0 mm 8 m/S 723 mmHg 80%
    23:00 +7°C° 0 mm 8 m/S 723 mmHg 79%

    21 Januar, Sonntag

    Zeit Temperatur Niederschläge Wind Luftdruck Luftfeuchtigkeit
    00:00 +7°C° 0 mm 8 m/S 723 mmHg 80%
    01:00 +7°C° 0 mm 8 m/S 722 mmHg 81%
    02:00 +8°C° 0 mm 7 m/S 722 mmHg 82%
    03:00 +8°C° 0 mm 7 m/S 722 mmHg 82%
    04:00 +7°C° 0 mm 8 m/S 721 mmHg 81%
    05:00 +7°C° 0 mm 8 m/S 720 mmHg 81%
    06:00 +7°C° 0,1 mm 8 m/S 720 mmHg 81%
    07:00 +7°C° 0,1 mm 8 m/S 720 mmHg 80%
    08:00 +7°C° 0,1 mm 9 m/S 720 mmHg 80%
    09:00 +8°C° 0 mm 10 m/S 719 mmHg 76%
    10:00 +8°C° 0 mm 11 m/S 719 mmHg 72%
    11:00 +9°C° 0 mm 11 m/S 719 mmHg 68%
    12:00 +9°C° 0 mm 11 m/S 718 mmHg 66%
    13:00 +11°C° 0 mm 11 m/S 718 mmHg 64%
    14:00 +11°C° 0 mm 11 m/S 717 mmHg 62%
    15:00 +11°C° 0,2 mm 10 m/S 717 mmHg 66%
    16:00 +10°C° 0,2 mm 9 m/S 716 mmHg 70%
    17:00 +9°C° 0,2 mm 8 m/S 716 mmHg 73%
    18:00 +9°C° 0,4 mm 8 m/S 716 mmHg 76%
    19:00 +9°C° 0,4 mm 7 m/S 715 mmHg 79%
    20:00 +8°C° 0,4 mm 7 m/S 715 mmHg 81%
    21:00 +8°C° 0,2 mm 6 m/S 715 mmHg 83%
    22:00 +8°C° 0,2 mm 6 m/S 714 mmHg 84%
    23:00 +7°C° 0,2 mm 5 m/S 714 mmHg 85%
    Mehr zeigen